This is the latest recevied weather packets stored in our database for station/object DO7CRZ-11. If no packets are shown the sender has not sent any weather packets the latest 10 day(s).
| Time | Temp. | Humidity | Pressure | Rain* | Wind** | Luminosity | Snow |
|---|---|---|---|---|---|---|---|
| 1777533728 | 10.56° C | 48% | 1032 hPa | 0 mm | - | 414 W/m² | - |
| 1777533131 | 10° C | 51% | 1031.9 hPa | 0 mm | - | 386 W/m² | - |
| 1777532534 | 9.44° C | 52% | 1032 hPa | 0 mm | - | 362 W/m² | - |
| 1777531929 | 8.89° C | 55% | 1032 hPa | 0 mm | - | 336 W/m² | - |
| 1777531329 | 8.33° C | 59% | 1032 hPa | 0 mm | - | 310 W/m² | - |
| 1777530732 | 7.78° C | 65% | 1032 hPa | 0 mm | - | 283 W/m² | - |
| 1777530135 | 6.67° C | 68% | 1031.9 hPa | 0 mm | - | 256 W/m² | - |
| 1777529528 | 5.56° C | 71% | 1031.8 hPa | 0 mm | - | 228 W/m² | - |
| 1777528933 | 5° C | 73% | 1031.8 hPa | 0 mm | - | 200 W/m² | - |
| 1777528336 | 4.44° C | 75% | 1031.7 hPa | 0 mm | - | 173 W/m² | - |
| 1777527736 | 3.33° C | 76% | 1031.6 hPa | 0 mm | - | 148 W/m² | - |
| 1777527129 | 2.78° C | 78% | 1031.6 hPa | 0 mm | - | 124 W/m² | - |
| 1777526532 | 1.67° C | 81% | 1031.6 hPa | 0 mm | - | 98 W/m² | - |
| 1777524729 | -1.67° C | 82% | 1031.5 hPa | 0 mm | - | 44 W/m² | - |
| 1777524132 | -2.22° C | 81% | 1031.3 hPa | 0 mm | - | 31 W/m² | - |
| 1777523537 | -2.22° C | 81% | 1031.3 hPa | 0 mm | - | 24 W/m² | - |
| 1777522928 | -2.78° C | 81% | 1031.2 hPa | 0 mm | - | 18 W/m² | - |
| 1777522333 | -2.78° C | 80% | 1031.2 hPa | 0 mm | - | 13 W/m² | - |
| 1777521736 | -2.78° C | 80% | 1031.3 hPa | 0 mm | - | 9 W/m² | - |
| 1777521138 | -2.78° C | 79% | 1031.2 hPa | 0 mm | - | 5 W/m² | - |
| 1777520528 | -2.78° C | 79% | 1031.2 hPa | 0 mm | - | 3 W/m² | - |
| 1777519334 | -2.78° C | 78% | 1031.1 hPa | 0 mm | - | 0 W/m² | - |
| 1777518129 | -2.78° C | 78% | 1030.9 hPa | 0 mm | - | 0 W/m² | - |
| 1777516936 | -2.78° C | 77% | 1031 hPa | 0 mm | - | 0 W/m² | - |
| 1777516327 | -2.78° C | 76% | 1031 hPa | 0 mm | - | 0 W/m² | - |
* Rain latest hour (hover to see other rain measurements)
** Current wind speed in m/s (hover to see current wind gust speed)